Time,TemperatureF,DewpointF,PressureIn,WindDirection,WindDirectionDegrees,WindSpeedMPH,WindSpeedGustMPH,Humidity,HourlyPrecipIn,Conditions,Clouds,dailyrainin,SolarRadiationWatts/m^2,SoftwareType,DateUTC
2016-07-24 00:00:00,83.4,70.4,29.84,SSE,160,0.0,0.0,65,0.00,,,0.00,0,Wunderground v.1.15,2016-07-24 05:00:00,
2016-07-24 00:10:00,83.2,70.7,29.85,SSE,160,0.0,0.0,66,0.00,,,0.00,0,Wunderground v.1.15,2016-07-24 05:10:00,
2016-07-24 00:15:00,83.1,70.6,29.85,SSE,160,0.0,0.0,66,0.00,,,0.00,0,Wunderground v.1.15,2016-07-24 05:15:00,
2016-07-24 00:25:00,82.9,70.8,29.85,SE,145,0.0,0.0,67,0.00,,,0.00,0,Wunderground v.1.15,2016-07-24 05:25:00,
2016-07-24 00:35:00,82.8,70.7,29.85,SSW,211,0.0,0.0,67,0.00,,,0.00,0,Wunderground v.1.15,2016-07-24 05:35:00,
2016-07-24 00:45:00,83.0,70.9,29.84,SW,221,0.0,0.0,67,0.00,,,0.00,0,Wunderground v.1.15,2016-07-24 05:45:00,
2016-07-24 00:55:00,82.3,70.7,29.84,SSE,161,0.0,0.0,68,0.00,,,0.00,0,Wunderground v.1.15,2016-07-24 05:55:00,
2016-07-24 01:00:00,82.2,71.0,29.84,South,186,0.0,0.0,69,0.00,,,0.00,0,Wunderground v.1.15,2016-07-24 06:00:00,
2016-07-24 01:05:00,82.1,70.9,29.84,South,180,0.0,0.0,69,0.00,,,0.00,0,Wunderground v.1.15,2016-07-24 06:05:00,
2016-07-24 01:15:00,82.2,70.6,29.84,SSW,192,0.0,0.0,68,0.00,,,0.00,0,Wunderground v.1.15,2016-07-24 06:15:00,
2016-07-24 01:20:00,82.1,70.5,29.84,South,170,0.0,0.0,68,0.00,,,0.00,0,Wunderground v.1.15,2016-07-24 06:20:00,
2016-07-24 01:25:00,82.1,70.5,29.84,South,170,0.0,0.0,68,0.00,,,0.00,0,Wunderground v.1.15,2016-07-24 06:25:00,
2016-07-24 01:30:00,82.0,70.4,29.84,South,170,0.0,0.0,68,0.00,,,0.00,0,Wunderground v.1.15,2016-07-24 06:30:00,
2016-07-24 01:35:00,82.0,70.4,29.84,SSE,158,0.0,0.0,68,0.00,,,0.00,0,Wunderground v.1.15,2016-07-24 06:35:00,
2016-07-24 01:45:00,81.6,70.9,29.84,ESE,123,0.0,0.0,70,0.00,,,0.00,0,Wunderground v.1.15,2016-07-24 06:45:00,
2016-07-24 01:55:00,81.1,70.4,29.84,ESE,123,0.0,0.0,70,0.00,,,0.00,0,Wunderground v.1.15,2016-07-24 06:55:00,
2016-07-24 02:00:00,81.0,70.3,29.83,ESE,123,0.0,0.0,70,0.00,,,0.00,0,Wunderground v.1.15,2016-07-24 07:00:00,
2016-07-24 02:05:00,80.9,70.2,29.84,ESE,123,0.0,0.0,70,0.00,,,0.00,0,Wunderground v.1.15,2016-07-24 07:05:00,
2016-07-24 02:10:00,80.8,70.1,29.83,ESE,123,0.0,0.0,70,0.00,,,0.00,0,Wunderground v.1.15,2016-07-24 07:10:00,
2016-07-24 02:20:00,80.7,70.4,29.83,ESE,122,0.0,0.0,71,0.00,,,0.00,0,Wunderground v.1.15,2016-07-24 07:20:00,
2016-07-24 02:30:00,80.1,70.7,29.83,East,80,0.0,0.0,73,0.00,,,0.00,0,Wunderground v.1.15,2016-07-24 07:30:00,
2016-07-24 02:40:00,79.8,70.0,29.83,East,80,0.0,0.0,72,0.00,,,0.00,0,Wunderground v.1.15,2016-07-24 07:40:00,
2016-07-24 02:50:00,80.6,69.9,29.83,SSW,208,0.0,0.0,70,0.00,,,0.00,0,Wunderground v.1.15,2016-07-24 07:50:00,
2016-07-24 03:00:00,80.8,69.7,29.82,SSW,208,0.0,0.0,69,0.00,,,0.00,0,Wunderground v.1.15,2016-07-24 08:00:00,
2016-07-24 03:05:00,80.7,70.0,29.82,SSW,208,0.0,0.0,70,0.00,,,0.00,0,Wunderground v.1.15,2016-07-24 08:05:00,
2016-07-24 03:10:00,80.7,70.0,29.82,SSW,209,0.0,0.0,70,0.00,,,0.00,0,Wunderground v.1.15,2016-07-24 08:10:00,
2016-07-24 03:15:00,80.7,70.0,29.82,SSW,203,0.0,0.0,70,0.00,,,0.00,0,Wunderground v.1.15,2016-07-24 08:15:00,
2016-07-24 03:25:00,80.6,69.9,29.82,South,191,0.0,0.0,70,0.00,,,0.00,0,Wunderground v.1.15,2016-07-24 08:25:00,
2016-07-24 03:30:00,80.5,70.2,29.82,SE,145,0.0,0.0,71,0.00,,,0.00,0,Wunderground v.1.15,2016-07-24 08:30:00,
2016-07-24 03:35:00,80.3,70.0,29.82,ESE,112,0.0,0.0,71,0.00,,,0.00,0,Wunderground v.1.15,2016-07-24 08:35:00,
2016-07-24 03:40:00,79.6,69.8,29.82,East,82,0.0,0.0,72,0.00,,,0.00,0,Wunderground v.1.15,2016-07-24 08:40:00,
2016-07-24 03:45:00,79.1,69.7,29.82,East,82,0.0,0.0,73,0.00,,,0.00,0,Wunderground v.1.15,2016-07-24 08:45:00,
2016-07-24 03:55:00,78.5,69.5,29.82,East,82,0.0,0.0,74,0.00,,,0.00,0,Wunderground v.1.15,2016-07-24 08:55:00,
2016-07-24 04:05:00,78.6,69.6,29.83,East,82,0.0,0.0,74,0.00,,,0.00,0,Wunderground v.1.15,2016-07-24 09:05:00,
2016-07-24 04:10:00,78.7,69.7,29.83,East,82,0.0,0.0,74,0.00,,,0.00,0,Wunderground v.1.15,2016-07-24 09:10:00,
2016-07-24 04:15:00,78.5,69.9,29.83,East,82,0.0,0.0,75,0.00,,,0.00,0,Wunderground v.1.15,2016-07-24 09:15:00,
2016-07-24 04:25:00,77.9,69.7,29.83,East,90,0.0,0.0,76,0.00,,,0.00,0,Wunderground v.1.15,2016-07-24 09:25:00,
2016-07-24 04:35:00,77.5,69.7,29.83,East,92,0.0,0.0,77,0.00,,,0.00,0,Wunderground v.1.15,2016-07-24 09:35:00,
2016-07-24 04:40:00,77.4,69.6,29.83,East,94,0.0,0.0,77,0.00,,,0.00,0,Wunderground v.1.15,2016-07-24 09:40:00,
2016-07-24 04:45:00,77.4,69.6,29.83,East,94,0.0,0.0,77,0.00,,,0.00,0,Wunderground v.1.15,2016-07-24 09:45:00,
2016-07-24 04:55:00,77.7,69.9,29.84,SE,139,0.0,0.0,77,0.00,,,0.00,0,Wunderground v.1.15,2016-07-24 09:55:00,